Wetbulb
46.26 46.67 47.39 48.19 48.50 48.55 48.64 49.27 49.90 49.86 49.32 48.56 48.78 49.19 49.91 51.09 52.13 52.90 53.45 53.72 54.17 54.63 55.03 55.38 55.37 55.06 54.43 53.62 53.98 54.30 54.34 53.93 53.48 53.03 52.40 51.36 51.41 51.64 51.91 52.50 52.99 53.27 53.49 53.63 53.49 53.31 53.27 53.00 53.18 52.73 51.91 51.37 50.19 49.24 48.88 49.56 50.51 50.91 50.91 50.64 50.55 50.55 50.69 50.73 50.06 49.74 49.88 50.28 50.65
47.61 47.79 48.56 49.90 50.03 49.90 49.77 49.96 50.23 50.36 50.32 50.14 49.87 49.78 50.37 51.73 52.77 53.40 53.67 53.76 54.66 54.98 55.05 55.20 54.97 54.80 54.54 54.11 53.66 53.43 53.39 53.03 52.75 52.21 51.45 50.59 50.37 50.37 50.59 50.96 51.36 51.90 52.27 52.49 52.76 52.95 52.90 52.67 52.95 52.72 52.13 51.54 51.05 50.33 49.69 49.56 49.83 49.60 48.92 48.15 47.88 47.75 47.61 47.79 47.57 47.75 48.02 48.11 48.02
48.02 48.33 48.56 48.65 48.56 49.10 49.78 50.00 49.37 48.69 48.38 49.01 49.51 50.10 50.77 51.86 52.63 53.03 53.16 53.06 53.11 53.52 53.86 54.05 53.96 53.88 53.90 53.97 53.61 53.25 53.03 52.71 52.35 51.90 51.40 50.91 50.37 49.92 49.55 49.51 49.46 49.78 50.23 50.46 50.91 51.27 51.54 51.81 52.17 51.95 51.32 50.50 49.92 49.19 48.47 47.93 48.20 47.84 47.07 46.25 46.12 46.16 46.35 46.57 46.35 46.44 46.57 46.48 46.07
47.88 48.11 48.20 47.97 47.57 47.52 47.84 48.56 47.66 47.34 47.66 48.97 49.06 49.73 50.68 51.54 51.77 51.81 51.49 51.09 51.13 51.71 52.24 52.42 52.59 52.68 52.77 52.83 52.89 52.98 52.93 52.62 52.21 51.94 51.62 51.30 50.90 50.59 50.01 49.46 48.65 48.15 47.93 47.84 48.33 48.79 49.10 49.33 49.69 49.42 48.83 48.24 48.15 47.79 47.39 47.07 47.02 46.98 46.66 46.16 46.12 46.16 46.12 46.03 45.80 45.80 45.67 45.08 44.54
47.30 47.48 47.61 47.39 46.84 46.84 46.93 46.57 46.71 47.02 47.61 48.42 49.42 50.10 50.36 50.50 50.59 50.45 50.41 50.99 51.02 51.06 51.03 51.08 51.52 51.68 51.59 51.29 51.26 51.31 51.35 51.40 51.75 51.56 51.34 51.12 50.90 50.72 50.50 50.09 49.87 49.46 49.01 48.33 48.33 48.61 48.88 49.06 49.51 49.46 49.06 48.47 48.06 47.43 46.89 46.66 46.57 46.39 46.12 45.80 45.67 45.58 45.49 45.26 44.99 44.72 44.40 43.86 43.22
46.44 46.35 46.35 46.48 45.99 46.26 46.62 46.71 46.21 46.62 47.43 48.20 48.11 48.33 48.88 49.72 50.08 50.26 50.30 50.38 50.25 50.21 50.26 50.44 50.75 50.70 50.44 50.04 49.91 49.77 49.68 49.68 50.13 50.40 50.44 50.36 50.22 50.04 49.91 49.91 49.82 49.82 49.78 49.78 49.96 50.14 50.37 50.50 50.23 49.69 49.06 48.24 47.30 46.62 46.30 46.30 46.17 45.62 44.94 44.31 43.90 43.68 43.54 43.45 43.18 42.96 42.73 42.46 41.60
45.58 45.49 45.49 45.45 45.36 45.72 45.94 45.81 46.03 46.39 46.84 47.12 46.62 46.71 47.34 48.10 48.68 49.04 49.35 49.66 49.75 49.80 49.80 49.84 49.58 49.49 49.36 49.01 49.01 48.96 48.96 49.09 49.18 49.36 49.54 49.55 49.27 49.14 49.00 48.78 48.78 48.83 49.01 49.28 49.60 49.69 49.69 49.64 49.69 49.24 48.56 47.84 46.57 45.71 45.26 45.44 45.04 44.36 43.59 42.82 42.59 42.18 41.73 41.19 40.56 40.29 40.25 40.43 40.24
45.04 44.86 44.86 44.81 44.81 44.77 44.81 44.95 45.72 46.12 46.44 46.57 46.21 46.08 46.30 46.89 47.39 47.92 48.32 48.63 48.76 48.94 49.03 48.98 48.81 48.82 48.86 48.77 48.64 48.59 48.55 48.50 48.55 48.59 48.64 48.64 48.51 48.24 48.01 47.65 47.48 47.34 47.43 47.70 48.02 48.11 48.29 48.51 48.33 47.79 47.07 46.39 45.17 44.09 43.50 43.69 43.55 43.14 42.64 42.05 41.82 41.42 40.82 39.96 39.34 39.11 39.12 39.03 38.26
44.27 44.05 43.91 44.14 44.18 44.32 44.36 44.41 44.73 45.09 45.40 45.49 45.63 45.81 45.99 46.08 46.22 46.53 46.85 47.11 47.20 47.42 47.69 47.78 47.96 48.14 48.28 48.36 48.32 48.18 48.18 48.05 47.87 47.92 47.92 47.97 47.79 47.56 47.30 46.94 46.53 46.40 46.30 46.48 46.66 46.84 47.02 47.16 46.71 46.12 45.44 44.72 43.72 43.09 42.74 42.98 42.75 42.47 42.15 41.69 41.42 40.97 40.51 39.98 39.98 39.57 38.76 37.41 37.13
42.87 42.87 43.05 43.46 43.28 43.51 43.87 43.96 44.10 44.27 44.32 44.59 44.64 45.00 45.32 45.55 45.10 45.10 45.28 45.47 45.34 45.25 45.33 45.73 46.27 46.58 46.94 47.20 47.33 47.38 47.24 47.25 46.89 46.76 46.76 46.76 46.67 46.44 46.26 46.08 45.81 45.63 45.49 45.63 45.72 45.81 45.72 45.72 45.08 44.50 43.96 43.37 42.78 42.47 42.43 42.62 42.34 41.98 41.61 41.29 40.62 39.99 39.63 39.53 39.22 38.64 37.96 37.29 37.11
41.70 41.83 42.19 42.51 42.19 42.74 43.37 43.28 43.64 43.69 43.65 43.60 43.38 43.33 43.38 43.60 43.15 43.29 43.48 43.30 43.21 42.98 42.94 43.44 43.89 44.29 44.74 45.06 45.42 45.65 45.82 45.96 45.82 45.60 45.37 45.37 45.41 45.32 45.19 45.15 45.05 44.92 44.87 44.87 45.00 45.00 44.86 44.59 44.09 43.56 43.29 43.10 42.75 42.53 42.32 42.10 41.59 41.00 40.59 40.18 39.60 38.97 38.47 38.36 38.36 38.27 38.00 37.74 37.21
40.93 41.02 41.06 41.29 41.34 41.89 42.56 42.70 42.87 42.83 42.70 42.56 42.38 42.20 42.11 41.97 41.66 41.80 41.98 41.98 41.93 41.80 41.71 41.84 42.20 42.56 42.97 43.51 43.84 44.11 44.30 44.49 44.53 44.53 44.53 44.40 44.44 44.44 44.40 44.44 44.34 44.25 44.25 44.29 44.42 44.28 44.05 43.70 43.24 42.88 42.66 42.61 42.52 42.22 41.78 41.17 40.63 40.00 39.49 39.13 38.85 38.40 38.07 37.79 37.78 37.68 37.59 37.29 36.97
40.34 40.43 40.48 40.61 40.94 41.34 41.80 42.07 42.16 42.11 41.88 41.88 41.74 41.70 41.56 41.39 41.39 41.40 41.44 41.35 41.57 41.57 41.61 41.80 42.03 42.39 42.85 43.44 43.72 43.81 43.86 43.82 43.59 43.58 43.72 43.86 43.82 43.82 43.64 43.59 43.50 43.45 43.40 43.48 43.61 43.43 43.16 42.71 42.26 41.85 41.58 41.44 41.49 41.27 40.97 40.40 39.91 39.36 38.78 38.41 38.13 37.81 37.53 37.30 37.15 36.96 36.55 36.01 36.33
39.67 39.76 39.85 39.98 40.39 40.98 41.48 41.80 41.94 41.72 41.48 41.52 41.53 41.49 41.44 41.31 41.99 42.14 41.83 40.90 40.76 40.80 41.16 41.85 42.72 43.23 43.38 43.44 43.53 43.53 43.48 43.48 43.39 43.29 43.11 43.11 43.02 42.79 42.61 42.43 42.25 42.20 42.28 42.36 42.42 42.33 42.02 41.66 41.25 40.93 40.51 40.16 40.11 40.06 39.98 39.71 39.35 38.89 38.44 37.93 37.53 37.25 37.06 36.69 36.15 35.70 35.47 35.61 36.01
39.09 39.04 39.13 39.40 39.90 40.71 41.35 41.73 41.79 41.65 41.35 41.39 41.77 41.92 42.09 42.32 43.14 43.52 43.04 41.48 41.10 41.29 41.66 42.12 42.72 43.04 43.10 42.97 42.79 42.61 42.47 42.33 42.37 42.37 42.23 42.05 41.87 41.69 41.46 41.19 41.01 40.95 40.95 40.95 40.99 40.91 40.75 40.53 40.30 40.02 39.73 39.44 39.26 39.17 39.12 38.94 38.75 38.52 38.11 37.60 37.37 37.04 36.54 35.81 34.83 34.33 34.25 34.66 35.43
38.32 38.28 38.41 38.72 39.22 39.99 40.82 41.44 41.63 41.48 41.24 41.32 41.60 41.69 41.77 42.04 43.16 43.49 43.40 42.86 42.68 42.73 42.70 42.24 42.05 42.24 42.30 42.21 41.99 41.64 41.41 41.18 41.08 40.99 40.94 40.76 40.62 40.44 40.22 40.00 39.95 39.85 39.81 39.84 39.87 39.83 39.75 39.75 39.61 39.46 39.22 38.94 38.75 38.57 38.48 38.26 38.08 37.89 37.61 37.33 37.15 36.77 36.14 35.23 34.06 33.24 32.84 33.12 35.03
37.60 37.55 37.64 38.00 38.31 38.82 39.55 40.30 40.81 41.00 41.13 41.26 41.44 41.71 41.80 41.79 42.46 42.79 42.84 42.53 42.40 42.08 41.80 41.28 41.29 41.38 41.44 41.40 41.33 40.98 40.58 40.22 40.03 39.83 39.68 39.59 39.49 39.41 39.24 39.15 39.11 39.15 39.14 39.08 39.07 39.02 39.06 39.07 39.07 38.97 38.78 38.50 38.27 38.13 37.99 37.81 37.59 37.53 37.42 37.20 36.97 36.51 35.92 35.42 34.42 33.65 33.42 33.81 35.07
36.79 36.73 36.96 37.37 37.50 37.86 38.22 38.54 39.32 40.02 40.49 40.81 41.19 41.51 41.75 41.89 41.90 41.99 42.05 41.87 41.51 41.14 40.86 40.66 41.01 40.92 40.73 40.55 40.51 40.29 39.93 39.39 39.20 39.10 38.96 38.86 38.82 38.78 38.74 38.70 38.75 38.80 38.70 38.60 38.59 38.49 38.45 38.37 38.41 38.28 38.22 37.99 37.76 37.71 37.65 37.48 37.45 37.43 37.29 37.15 36.84 36.48 36.07 35.75 35.26 34.90 34.85 35.06 33.87
36.02 36.06 36.19 36.59 36.81 37.22 37.58 37.94 38.54 39.42 40.21 40.55 40.98 41.27 41.45 41.60 41.51 41.38 41.29 41.20 41.15 40.83 40.51 40.37 40.38 40.34 40.16 39.94 39.98 39.97 39.79 39.24 39.02 38.88 38.78 38.69 38.60 38.51 38.51 38.46 38.55 38.56 38.47 38.29 38.15 38.10 37.92 37.75 37.61 37.48 37.34 37.34 37.19 37.18 37.13 37.12 37.01 36.99 36.85 36.80 36.62 36.48 36.31 36.13 35.99 35.81 35.57 35.05 32.83
35.61 35.60 35.64 35.73 35.96 36.45 36.99 37.36 37.91 38.78 39.67 40.49 40.78 40.92 40.96 41.06 41.06 40.92 40.74 40.74 40.88 40.71 40.44 40.11 39.88 39.75 39.66 39.62 39.53 39.57 39.56 39.43 38.99 38.80 38.66 38.57 38.47 38.33 38.28 38.23 38.23 38.19 38.19 38.02 37.81 37.59 37.37 37.15 36.84 36.62 36.52 36.65 36.49 36.46 36.44 36.39 36.38 36.31 36.27 36.22 36.21 36.21 36.21 36.21 36.22 36.21 35.98 35.51 33.78
35.66 35.79 35.88 35.83 36.05 36.28 36.64 37.19 37.87 38.64 39.44 40.36 40.51 40.51 40.51 40.56 40.51 40.46 40.41 40.46 40.51 40.39 40.12 39.87 39.65 39.47 39.33 39.29 39.15 39.15 39.28 39.47 38.99 38.72 38.58 38.48 38.30 38.16 38.11 37.97 37.75 37.58 37.40 37.24 37.00 36.79 36.58 36.33 36.16 36.02 35.88 35.88 35.73 35.62 35.56 35.62 35.46 35.44 35.42 35.34 35.45 35.49 35.58 35.72 35.94 36.07 36.16 36.15 35.41
37.11 37.39 37.53 36.29 36.33 36.51 36.78 37.10 37.60 38.24 39.08 40.14 40.29 40.29 40.16 40.16 40.10 40.05 40.18 40.31 40.13 39.94 39.79 39.59 39.51 39.38 39.21 39.20 39.08 39.08 39.12 39.22 38.85 38.64 38.45 38.23 38.09 37.96 37.77 37.44 37.01 36.60 36.18 35.77 35.41 35.25 35.15 35.22 35.00 34.80 34.61 34.57 34.65 34.70 34.76 34.71 34.58 34.46 34.32 34.18 34.25 34.29 34.45 34.64 34.92 35.14 35.41 35.77 36.02
38.74 38.46 37.88 37.29 37.29 37.42 37.51 36.92 37.34 38.20 39.18 39.96 40.02 40.03 39.89 39.85 39.85 39.93 39.97 39.96 39.85 39.62 39.50 39.40 39.40 39.24 39.12 39.14 39.01 38.96 38.82 38.72 38.63 38.45 38.23 37.82 37.32 36.59 35.59 34.44 34.33 34.88 35.26 34.95 34.24 33.74 33.72 34.24 33.91 33.53 33.16 32.94 33.34 33.54 33.59 33.76 33.80 33.59 33.38 33.24 33.13 33.16 33.21 33.43 33.51 33.79 34.02 34.40 35.09
39.15 39.14 39.05 38.78 38.61 37.95 37.20 36.98 38.35 39.27 39.74 39.79 39.79 39.71 39.63 39.54 39.55 39.55 39.58 39.52 39.43 39.34 39.24 39.24 39.23 39.15 39.12 39.02 38.89 38.79 38.64 38.47 38.37 38.30 38.16 37.75 36.97 36.16 35.12 33.67 33.25 34.03 35.17 35.82 35.69 35.20 34.73 34.41 33.72 33.39 33.17 32.75 32.72 32.62 32.57 32.64 32.86 32.86 32.72 32.54 32.48 32.38 32.38 32.45 32.43 32.41 32.43 32.86 33.21
37.98 38.30 38.96 39.18 38.65 37.71 37.21 37.83 39.15 39.56 39.51 39.56 39.61 39.53 39.41 39.33 39.29 39.25 39.11 39.05 39.05 39.05 39.09 39.09 39.18 39.17 39.17 39.05 38.95 38.80 38.69 38.60 38.73 38.75 38.73 38.58 38.31 37.91 37.64 37.46 37.41 37.82 38.40 38.80 38.86 38.32 37.32 35.93 34.56 33.66 33.05 32.81 32.51 32.28 32.02 31.92 31.96 32.11 32.31 32.31 32.27 32.05 31.87 31.72 31.61 31.48 31.30 31.20 30.96
38.69 38.83 39.17 39.28 38.79 38.18 38.04 38.75 39.18 39.32 39.27 39.32 39.33 39.29 39.16 39.09 39.15 39.10 38.96 38.91 38.99 39.08 39.22 39.27 39.39 39.56 39.55 39.35 39.24 39.13 39.17 39.35 39.47 39.50 39.53 39.57 39.61 39.61 39.71 39.76 39.77 39.87 39.99 40.06 40.01 39.51 38.65 37.69 36.24 34.32 32.57 31.34 31.72 31.92 31.94 31.81 31.71 31.71 31.79 31.89 31.87 31.67 31.34 30.97 30.82 30.52 30.02 29.46 29.05
39.48 39.43 39.48 39.45 39.29 39.05 39.04 39.14 39.14 39.05 39.05 39.05 39.05 39.01 39.06 39.16 39.16 39.07 39.06 39.05 39.18 39.32 39.37 39.41 39.45 39.59 39.49 39.02 38.91 38.85 38.98 39.28 39.33 39.42 39.50 39.55 39.69 39.77 39.86 39.99 40.02 40.12 40.34 40.73 40.51 40.06 39.29 38.42 37.14 35.19 32.68 29.69 29.56 30.43 31.44 31.65 31.54 31.45 31.34 31.13 30.90 30.62 30.30 29.94 29.33 28.89 28.46 27.82 27.56
39.24 39.29 39.29 39.21 39.11 39.10 39.10 39.01 38.96 38.82 38.82 38.82 38.87 38.96 39.04 39.13 39.08 39.08 39.03 39.08 39.08 39.08 38.97 38.87 38.89 38.81 38.71 38.37 38.18 38.21 38.35 38.71 38.98 39.12 39.22 39.28 39.40 39.39 39.42 39.55 39.67 39.96 40.38 40.86 40.57 40.07 39.44 38.70 37.65 36.24 34.24 31.40 30.02 30.36 31.29 31.39 31.18 30.93 30.52 30.25 29.70 29.06 28.42 28.06 27.66 27.27 26.99 26.96 26.79
39.02 39.00 38.96 38.92 38.82 38.82 38.82 38.73 38.63 38.63 38.71 38.85 38.95 39.04 39.00 38.87 38.69 38.60 38.47 38.34 38.23 38.15 38.11 38.15 38.21 38.16 37.96 37.81 37.80 37.89 37.98 38.29 38.58 38.81 38.78 38.66 38.73 38.89 39.06 39.29 39.57 40.12 40.55 40.82 40.41 39.91 39.28 38.72 37.90 36.89 35.52 33.51 30.83 29.88 29.90 29.76 29.05 29.04 29.16 28.66 28.15 27.26 26.34 25.81 26.08 26.20 26.26 26.37 26.24
38.93 38.81 38.70 38.59 38.63 38.63 38.63 38.59 38.67 38.80 38.94 39.08 38.96 38.76 38.41 38.02 37.80 37.57 37.47 37.27 37.21 37.40 37.48 37.62 37.50 37.36 37.26 37.39 37.62 37.75 37.92 38.07 38.27 38.28 38.12 37.87 37.92 38.08 38.44 38.89 39.17 39.75 40.31 40.51 40.06 39.48 38.98 38.47 37.85 36.98 35.66 33.83 29.75 26.49 24.39 23.93 23.67 24.38 25.30 25.72 25.02 24.25 24.09 24.95 25.64 26.04 26.25 26.33 26.29
38.73 38.65 38.66 38.48 38.40 38.49 38.53 38.61 38.79 38.94 39.00 38.80 38.38 37.90 37.45 37.03 36.78 36.66 36.63 36.57 36.77 37.00 37.23 37.05 36.77 36.67 36.71 37.06 37.29 37.38 37.48 37.67 37.68 37.61 37.53 37.35 37.51 37.54 37.44 37.67 38.45 39.35 39.95 40.16 39.67 39.21 38.71 38.11 37.30 36.33 35.02 33.45 29.49 25.29 22.33 21.94 21.52 21.06 20.96 21.79 24.09 24.95 25.41 26.47 26.78 27.02 26.96 26.83 26.48
38.64 38.64 38.56 38.48 38.37 38.46 38.56 38.78 38.88 38.82 38.53 37.99 37.49 37.02 36.62 36.28 36.23 36.18 36.31 36.40 36.41 36.42 36.38 36.16 35.96 35.91 35.99 36.26 36.48 36.67 36.85 36.99 37.00 37.05 37.01 36.96 36.77 36.63 36.58 36.81 37.55 38.69 39.48 39.76 39.27 38.78 38.20 37.53 36.55 35.56 34.42 32.96 28.62 22.82 18.92 20.17 19.20 18.78 18.92 19.62 22.15 23.81 24.78 25.33 25.35 24.83 24.04 23.53 23.05
38.50 38.46 38.41 38.28 38.32 38.42 38.61 38.72 38.65 38.27 37.84 37.30 36.83 36.44 36.14 35.90 35.84 35.81 35.91 36.01 35.84 35.65 35.38 35.33 35.19 35.23 35.32 35.53 35.72 35.86 36.04 36.27 36.47 36.79 36.92 36.73 36.50 36.40 36.49 36.58 37.23 38.36 39.25 39.24 38.80 38.24 37.48 36.68 35.76 34.93 33.86 32.32 26.82 21.19 17.68 18.24 17.75 17.44 17.31 17.33 18.49 19.28 19.59 19.52 19.40 18.64 17.69 17.01 17.31
38.23 38.10 38.09 38.04 38.08 38.08 38.17 38.23 38.11 37.73 37.28 36.73 36.36 36.08 35.81 35.49 35.22 35.13 35.09 35.24 35.12 34.89 34.70 34.47 34.47 34.60 34.78 34.96 35.05 35.22 35.35 35.63 35.37 35.33 35.34 35.48 35.44 35.48 35.71 36.09 36.91 37.99 38.77 38.58 38.07 37.45 36.70 35.84 35.12 34.42 33.24 31.17 23.89 19.19 16.95 17.09 16.59 16.19 15.90 15.59 15.23 14.37 13.45 12.94 13.12 13.36 13.50 13.69 14.00
37.78 37.65 37.55 37.50 37.50 37.63 37.64 37.60 37.38 37.03 36.58 36.12 35.80 35.53 35.31 35.00 34.68 34.63 34.56 34.76 34.43 34.10 33.81 33.80 33.84 33.93 34.02 34.11 34.17 34.17 34.11 33.99 33.50 33.28 33.22 33.24 33.02 33.02 33.28 33.90 35.10 36.66 37.70 37.50 37.09 36.63 35.97 35.28 34.68 33.82 32.00 28.23 20.48 16.67 15.49 15.79 15.42 14.95 14.73 14.93 14.98 14.49 13.77 13.37 13.35 13.22 13.12 13.03 13.16
37.38 37.20 37.10 37.01 37.05 37.01 36.97 36.97 36.76 36.36 35.90 35.44 35.12 34.85 34.63 34.45 34.27 34.28 34.35 34.31 33.62 33.10 32.85 32.85 32.91 32.86 32.72 32.53 32.74 32.79 32.52 31.63 31.04 30.37 29.67 29.30 28.30 27.69 27.64 28.22 29.21 32.75 36.07 36.64 36.22 35.80 35.33 34.85 34.40 33.23 30.12 23.90 18.09 15.50 14.83 14.58 14.27 13.91 13.86 14.39 14.70 14.33 13.72 13.30 13.50 13.48 13.28 13.00 13.23
37.07 36.89 36.75 36.65 36.56 36.52 36.48 36.35 35.95 35.50 35.04 34.63 34.22 33.99 33.72 33.44 33.40 33.48 33.51 33.28 32.33 32.04 31.99 31.99 31.77 31.54 31.14 30.55 30.06 29.53 28.68 27.16 25.86 24.75 23.95 23.95 22.41 21.58 21.46 22.08 22.04 27.58 33.69 36.00 35.58 35.27 34.91 34.61 34.26 32.54 28.28 20.48 16.25 14.93 14.76 14.32 13.87 13.67 13.73 13.93 13.77 13.49 12.98 12.57 12.81 13.08 13.48 14.01 16.88
36.80 36.62 36.44 36.25 36.07 36.02 35.90 35.63 35.09 34.59 34.13 33.76 33.49 33.27 33.00 32.69 32.69 32.84 32.97 32.75 31.60 31.23 31.28 31.18 30.55 30.09 29.52 28.72 27.30 25.10 22.87 21.42 21.78 21.31 20.58 20.06 19.40 19.44 19.89 20.66 20.50 25.25 31.41 35.45 35.37 35.05 34.69 34.41 34.11 32.18 27.65 19.51 16.01 14.97 15.07 14.80 14.11 13.85 13.65 13.45 13.51 13.49 13.09 12.26 12.06 12.39 13.78 16.38 25.30
36.43 36.17 35.90 35.67 35.62 35.44 35.22 34.78 34.32 33.91 33.45 33.12 32.85 32.59 32.37 32.19 32.19 32.35 32.39 32.26 31.29 30.91 30.72 30.36 29.61 29.16 28.67 27.62 24.34 21.34 19.51 19.91 21.38 21.57 20.44 17.92 20.00 22.38 23.23 20.88 20.63 23.53 28.67 34.58 35.33 35.17 34.70 34.32 34.04 32.87 29.18 21.21 15.91 14.53 14.85 14.82 14.35 13.91 13.41 12.86 13.36 13.82 13.84 12.77 11.95 12.28 13.85 17.02 27.61
35.34 35.08 34.72 34.40 34.58 34.49 34.22 33.82 33.50 33.23 32.87 32.50 32.22 31.96 31.91 31.92 32.04 32.07 31.89 31.38 30.79 30.55 30.44 30.05 28.89 27.99 27.16 26.29 22.20 20.45 19.79 18.95 18.96 20.11 21.12 20.57 23.06 26.13 26.41 20.79 19.37 20.69 25.20 32.71 35.24 35.50 34.83 34.50 34.21 33.11 29.26 20.45 15.34 14.10 14.58 14.98 15.17 14.95 14.18 12.97 12.86 13.69 14.31 13.64 12.43 12.48 13.43 15.07 21.21
34.21 33.85 33.54 33.31 33.27 33.23 33.09 32.86 32.68 32.59 32.42 32.19 31.96 31.97 32.11 32.04 31.43 30.96 30.44 29.85 30.08 30.41 30.44 29.84 27.30 25.28 24.45 25.51 22.27 21.09 20.82 20.45 19.08 19.07 20.00 21.53 22.17 24.11 24.34 19.90 18.44 18.51 21.65 29.15 34.69 35.86 35.14 34.76 34.46 33.33 29.46 20.69 15.12 13.77 14.56 15.67 16.39 16.31 15.42 13.72 12.35 12.50 13.34 13.82 13.56 13.62 13.87 13.98 14.42
MSLP
1016.47 1016.47 1016.43 1016.39 1016.35 1016.39 1016.43 1016.47 1016.47 1016.47 1016.47 1016.43 1016.47 1016.47 1016.43 1016.39 1016.35 1016.35 1016.35 1016.27 1016.27 1016.27 1016.23 1016.19 1016.15 1016.11 1016.07 1015.95 1015.91 1015.95 1016.03 1016.07 1016.15 1016.31 1016.47 1016.55 1016.63 1016.59 1016.51 1016.55 1016.79 1016.99 1017.19 1017.27 1017.35 1017.39 1017.39 1017.47 1017.63 1017.83 1018.03 1018.11 1018.27 1018.39 1018.47 1018.47 1018.51 1018.59 1018.71 1018.83 1018.99 1019.07 1019.15 1019.23 1019.39 1019.51 1019.55 1019.63 1019.67
1016.63 1016.63 1016.55 1016.51 1016.51 1016.51 1016.51 1016.59 1016.59 1016.59 1016.59 1016.59 1016.55 1016.55 1016.55 1016.55 1016.55 1016.55 1016.51 1016.47 1016.47 1016.43 1016.43 1016.39 1016.35 1016.31 1016.23 1016.19 1016.19 1016.19 1016.19 1016.27 1016.35 1016.47 1016.59 1016.75 1016.83 1016.87 1016.91 1017.03 1017.15 1017.27 1017.35 1017.39 1017.39 1017.43 1017.47 1017.51 1017.63 1017.83 1018.03 1018.15 1018.27 1018.39 1018.51 1018.63 1018.63 1018.75 1018.91 1019.07 1019.19 1019.31 1019.39 1019.51 1019.59 1019.67 1019.79 1019.83 1019.87
1016.83 1016.79 1016.75 1016.75 1016.71 1016.71 1016.71 1016.75 1016.79 1016.79 1016.79 1016.75 1016.71 1016.67 1016.67 1016.71 1016.75 1016.79 1016.79 1016.79 1016.71 1016.63 1016.59 1016.59 1016.59 1016.51 1016.43 1016.39 1016.35 1016.35 1016.39 1016.47 1016.55 1016.67 1016.79 1016.91 1017.07 1017.19 1017.31 1017.43 1017.55 1017.59 1017.59 1017.55 1017.51 1017.51 1017.51 1017.59 1017.71 1017.91 1018.11 1018.31 1018.43 1018.55 1018.71 1018.83 1018.83 1018.91 1019.07 1019.31 1019.43 1019.51 1019.59 1019.71 1019.79 1019.83 1019.91 1019.95 1019.99
1017.03 1017.03 1016.99 1016.99 1016.95 1016.95 1016.99 1016.95 1016.99 1016.95 1016.91 1016.91 1016.87 1016.79 1016.83 1016.91 1016.95 1017.03 1017.03 1016.99 1016.91 1016.87 1016.87 1016.87 1016.83 1016.79 1016.67 1016.63 1016.59 1016.59 1016.63 1016.67 1016.79 1016.91 1016.99 1017.11 1017.23 1017.35 1017.51 1017.63 1017.71 1017.79 1017.79 1017.75 1017.71 1017.67 1017.71 1017.79 1017.95 1018.15 1018.35 1018.47 1018.59 1018.75 1018.91 1018.99 1019.07 1019.15 1019.31 1019.47 1019.59 1019.67 1019.75 1019.83 1019.91 1019.91 1019.99 1020.07 1020.15
1017.23 1017.23 1017.19 1017.19 1017.19 1017.19 1017.15 1017.15 1017.15 1017.11 1017.11 1017.07 1017.07 1017.03 1017.07 1017.15 1017.19 1017.19 1017.19 1017.15 1017.19 1017.19 1017.19 1017.11 1017.07 1017.03 1016.99 1016.91 1016.91 1016.87 1016.91 1016.91 1016.99 1017.11 1017.23 1017.35 1017.43 1017.55 1017.71 1017.79 1017.79 1017.83 1017.91 1017.91 1017.91 1017.87 1017.91 1017.91 1018.11 1018.35 1018.51 1018.63 1018.79 1018.95 1019.07 1019.15 1019.23 1019.35 1019.51 1019.63 1019.75 1019.83 1019.91 1019.95 1020.03 1020.07 1020.15 1020.23 1020.35
1017.51 1017.51 1017.51 1017.47 1017.39 1017.35 1017.35 1017.35 1017.35 1017.35 1017.31 1017.27 1017.23 1017.31 1017.35 1017.39 1017.39 1017.39 1017.39 1017.47 1017.51 1017.51 1017.43 1017.35 1017.31 1017.27 1017.23 1017.23 1017.19 1017.19 1017.23 1017.27 1017.27 1017.31 1017.35 1017.51 1017.67 1017.83 1017.91 1017.91 1017.87 1017.91 1017.99 1018.07 1018.07 1018.03 1018.07 1018.15 1018.31 1018.51 1018.75 1018.91 1019.07 1019.19 1019.27 1019.31 1019.35 1019.47 1019.63 1019.79 1019.91 1019.95 1020.03 1020.11 1020.19 1020.23 1020.27 1020.39 1020.47
1017.71 1017.67 1017.67 1017.63 1017.59 1017.59 1017.59 1017.55 1017.51 1017.51 1017.51 1017.51 1017.51 1017.59 1017.63 1017.67 1017.63 1017.63 1017.67 1017.67 1017.71 1017.71 1017.67 1017.63 1017.63 1017.59 1017.55 1017.51 1017.51 1017.51 1017.51 1017.51 1017.51 1017.51 1017.59 1017.79 1018.07 1018.19 1018.19 1018.11 1018.07 1018.03 1018.07 1018.19 1018.19 1018.23 1018.31 1018.35 1018.51 1018.71 1018.91 1019.07 1019.19 1019.35 1019.39 1019.39 1019.51 1019.63 1019.79 1019.95 1020.07 1020.19 1020.23 1020.35 1020.35 1020.43 1020.47 1020.55 1020.67
1017.87 1017.87 1017.87 1017.87 1017.83 1017.79 1017.79 1017.79 1017.75 1017.71 1017.67 1017.75 1017.79 1017.91 1017.91 1017.91 1017.91 1017.91 1017.91 1017.87 1017.91 1017.91 1017.91 1017.91 1017.91 1017.87 1017.83 1017.79 1017.83 1017.83 1017.79 1017.83 1017.79 1017.87 1018.03 1018.23 1018.39 1018.47 1018.43 1018.35 1018.27 1018.27 1018.35 1018.43 1018.47 1018.47 1018.55 1018.63 1018.79 1018.91 1019.07 1019.19 1019.39 1019.51 1019.63 1019.63 1019.67 1019.79 1019.95 1020.11 1020.27 1020.35 1020.47 1020.51 1020.59 1020.63 1020.71 1020.79 1020.91
1018.07 1018.11 1018.07 1018.07 1018.07 1018.03 1017.99 1017.95 1017.91 1017.91 1017.95 1018.07 1018.07 1018.15 1018.15 1018.11 1018.15 1018.11 1018.11 1018.15 1018.19 1018.19 1018.19 1018.19 1018.19 1018.15 1018.07 1018.07 1018.03 1018.07 1018.11 1018.15 1018.19 1018.31 1018.43 1018.55 1018.63 1018.63 1018.59 1018.51 1018.51 1018.59 1018.67 1018.79 1018.83 1018.87 1018.91 1018.99 1019.11 1019.23 1019.35 1019.51 1019.63 1019.79 1019.83 1019.87 1019.91 1020.03 1020.19 1020.31 1020.47 1020.55 1020.63 1020.67 1020.79 1020.87 1020.95 1021.03 1021.11
1018.35 1018.35 1018.27 1018.23 1018.27 1018.23 1018.19 1018.15 1018.15 1018.19 1018.19 1018.27 1018.35 1018.35 1018.35 1018.35 1018.39 1018.39 1018.43 1018.47 1018.47 1018.47 1018.47 1018.47 1018.39 1018.35 1018.27 1018.27 1018.27 1018.35 1018.43 1018.47 1018.55 1018.63 1018.75 1018.79 1018.79 1018.79 1018.79 1018.79 1018.87 1018.91 1019.03 1019.11 1019.19 1019.19 1019.27 1019.35 1019.47 1019.59 1019.67 1019.79 1019.91 1020.03 1020.07 1020.07 1020.19 1020.27 1020.39 1020.51 1020.63 1020.71 1020.79 1020.91 1020.99 1021.07 1021.15 1021.19 1021.27
1018.55 1018.51 1018.47 1018.47 1018.47 1018.39 1018.35 1018.35 1018.35 1018.39 1018.43 1018.47 1018.55 1018.59 1018.63 1018.63 1018.63 1018.71 1018.71 1018.71 1018.67 1018.71 1018.75 1018.71 1018.63 1018.59 1018.55 1018.59 1018.63 1018.67 1018.71 1018.79 1018.83 1018.91 1018.95 1018.99 1019.03 1019.03 1019.07 1019.15 1019.19 1019.27 1019.35 1019.39 1019.51 1019.51 1019.55 1019.63 1019.71 1019.83 1019.91 1020.03 1020.11 1020.19 1020.31 1020.35 1020.39 1020.47 1020.63 1020.75 1020.79 1020.91 1020.99 1021.07 1021.19 1021.23 1021.27 1021.31 1021.35
1018.71 1018.71 1018.67 1018.67 1018.63 1018.55 1018.51 1018.51 1018.63 1018.67 1018.71 1018.75 1018.79 1018.79 1018.87 1018.91 1018.91 1018.91 1018.91 1018.87 1018.87 1018.91 1018.99 1018.99 1018.91 1018.91 1018.91 1018.91 1018.99 1019.03 1019.03 1019.07 1019.07 1019.15 1019.19 1019.19 1019.27 1019.31 1019.35 1019.43 1019.51 1019.55 1019.63 1019.67 1019.75 1019.79 1019.83 1019.91 1019.99 1020.07 1020.15 1020.23 1020.35 1020.39 1020.47 1020.55 1020.63 1020.71 1020.83 1020.91 1020.95 1021.07 1021.15 1021.23 1021.35 1021.39 1021.43 1021.43 1021.43
1018.91 1018.91 1018.87 1018.83 1018.79 1018.75 1018.75 1018.79 1018.83 1018.91 1018.91 1018.95 1018.99 1019.03 1019.07 1019.07 1019.11 1019.07 1019.07 1019.03 1019.07 1019.15 1019.19 1019.19 1019.15 1019.11 1019.15 1019.19 1019.19 1019.23 1019.27 1019.31 1019.35 1019.35 1019.39 1019.47 1019.51 1019.55 1019.59 1019.63 1019.71 1019.79 1019.87 1019.91 1019.95 1020.03 1020.11 1020.19 1020.23 1020.31 1020.35 1020.43 1020.55 1020.63 1020.67 1020.75 1020.83 1020.91 1021.03 1021.07 1021.15 1021.19 1021.27 1021.35 1021.47 1021.51 1021.55 1021.59 1021.59
1019.07 1019.07 1019.07 1019.03 1018.99 1018.91 1018.91 1018.99 1019.07 1019.11 1019.15 1019.19 1019.19 1019.19 1019.19 1019.19 1019.19 1019.19 1019.19 1019.19 1019.27 1019.31 1019.35 1019.35 1019.35 1019.35 1019.35 1019.35 1019.39 1019.47 1019.51 1019.51 1019.51 1019.59 1019.63 1019.67 1019.75 1019.79 1019.87 1019.91 1019.95 1020.03 1020.07 1020.15 1020.19 1020.27 1020.35 1020.39 1020.47 1020.51 1020.55 1020.63 1020.71 1020.79 1020.87 1020.91 1020.99 1021.07 1021.15 1021.23 1021.35 1021.39 1021.47 1021.59 1021.63 1021.71 1021.75 1021.75 1021.79
1019.23 1019.23 1019.23 1019.19 1019.15 1019.11 1019.15 1019.19 1019.23 1019.31 1019.35 1019.35 1019.35 1019.35 1019.35 1019.35 1019.35 1019.31 1019.35 1019.35 1019.39 1019.43 1019.47 1019.47 1019.51 1019.55 1019.59 1019.63 1019.63 1019.67 1019.71 1019.79 1019.79 1019.79 1019.83 1019.91 1019.99 1020.07 1020.11 1020.15 1020.19 1020.23 1020.31 1020.35 1020.47 1020.47 1020.55 1020.59 1020.63 1020.71 1020.75 1020.83 1020.91 1020.95 1021.07 1021.11 1021.15 1021.19 1021.31 1021.43 1021.51 1021.63 1021.71 1021.79 1021.83 1021.91 1021.91 1021.91 1021.91
1019.43 1019.43 1019.39 1019.35 1019.35 1019.35 1019.35 1019.35 1019.43 1019.51 1019.51 1019.51 1019.55 1019.51 1019.51 1019.51 1019.51 1019.47 1019.51 1019.51 1019.51 1019.55 1019.63 1019.67 1019.75 1019.79 1019.83 1019.87 1019.91 1019.91 1019.95 1019.99 1020.03 1020.07 1020.11 1020.15 1020.19 1020.27 1020.35 1020.39 1020.47 1020.47 1020.51 1020.59 1020.67 1020.71 1020.79 1020.79 1020.87 1020.91 1020.91 1020.99 1021.07 1021.15 1021.23 1021.31 1021.35 1021.47 1021.55 1021.63 1021.71 1021.79 1021.87 1021.91 1022.03 1022.07 1022.07 1022.07 1022.07
1019.63 1019.63 1019.59 1019.55 1019.55 1019.55 1019.59 1019.59 1019.63 1019.63 1019.67 1019.67 1019.67 1019.63 1019.63 1019.63 1019.63 1019.63 1019.67 1019.71 1019.71 1019.79 1019.87 1019.91 1019.95 1019.99 1020.07 1020.07 1020.07 1020.15 1020.19 1020.19 1020.27 1020.35 1020.35 1020.39 1020.47 1020.51 1020.59 1020.63 1020.67 1020.71 1020.75 1020.79 1020.83 1020.91 1020.95 1021.03 1021.07 1021.07 1021.11 1021.19 1021.23 1021.35 1021.39 1021.51 1021.59 1021.63 1021.75 1021.79 1021.87 1021.91 1022.03 1022.07 1022.15 1022.19 1022.19 1022.19 1022.15
1019.79 1019.79 1019.79 1019.75 1019.79 1019.79 1019.79 1019.79 1019.79 1019.79 1019.79 1019.79 1019.79 1019.79 1019.79 1019.79 1019.79 1019.83 1019.87 1019.91 1019.95 1019.99 1020.07 1020.07 1020.07 1020.15 1020.19 1020.23 1020.27 1020.35 1020.43 1020.47 1020.51 1020.55 1020.59 1020.63 1020.67 1020.75 1020.79 1020.83 1020.87 1020.91 1020.91 1020.95 1021.03 1021.07 1021.11 1021.19 1021.23 1021.27 1021.31 1021.35 1021.43 1021.51 1021.59 1021.67 1021.79 1021.83 1021.91 1021.95 1022.03 1022.11 1022.19 1022.23 1022.31 1022.31 1022.27 1022.27 1022.31
1019.95 1019.99 1019.95 1019.95 1019.95 1019.95 1019.91 1019.91 1019.95 1019.91 1019.91 1019.91 1019.91 1019.91 1019.91 1019.91 1019.95 1019.99 1020.07 1020.11 1020.15 1020.15 1020.19 1020.19 1020.23 1020.27 1020.35 1020.39 1020.47 1020.55 1020.63 1020.67 1020.71 1020.75 1020.79 1020.83 1020.91 1020.91 1020.95 1020.99 1021.07 1021.07 1021.11 1021.15 1021.19 1021.23 1021.31 1021.35 1021.39 1021.47 1021.51 1021.55 1021.63 1021.67 1021.79 1021.87 1021.95 1022.03 1022.07 1022.11 1022.19 1022.23 1022.31 1022.35 1022.39 1022.39 1022.35 1022.39 1022.43
1020.11 1020.11 1020.11 1020.11 1020.11 1020.11 1020.11 1020.07 1020.07 1020.07 1020.07 1020.03 1020.07 1020.07 1020.07 1020.11 1020.11 1020.15 1020.19 1020.23 1020.27 1020.27 1020.27 1020.35 1020.39 1020.47 1020.51 1020.59 1020.63 1020.71 1020.79 1020.83 1020.87 1020.91 1020.95 1021.03 1021.07 1021.11 1021.15 1021.19 1021.19 1021.23 1021.31 1021.35 1021.35 1021.43 1021.51 1021.55 1021.63 1021.63 1021.71 1021.75 1021.83 1021.91 1021.95 1022.07 1022.11 1022.19 1022.27 1022.31 1022.35 1022.35 1022.43 1022.47 1022.47 1022.47 1022.47 1022.47 1022.47
1020.19 1020.19 1020.19 1020.23 1020.23 1020.23 1020.23 1020.19 1020.19 1020.19 1020.15 1020.11 1020.19 1020.19 1020.23 1020.27 1020.27 1020.31 1020.35 1020.35 1020.35 1020.39 1020.43 1020.47 1020.51 1020.63 1020.67 1020.71 1020.79 1020.83 1020.91 1020.91 1021.03 1021.07 1021.11 1021.15 1021.19 1021.27 1021.35 1021.35 1021.39 1021.43 1021.47 1021.51 1021.55 1021.63 1021.67 1021.75 1021.79 1021.87 1021.91 1021.91 1021.95 1022.07 1022.15 1022.23 1022.35 1022.39 1022.43 1022.47 1022.51 1022.55 1022.59 1022.59 1022.59 1022.55 1022.55 1022.55 1022.55
1020.19 1020.23 1020.27 1020.35 1020.35 1020.35 1020.35 1020.35 1020.31 1020.27 1020.23 1020.23 1020.31 1020.35 1020.39 1020.39 1020.39 1020.43 1020.47 1020.47 1020.51 1020.55 1020.63 1020.67 1020.71 1020.75 1020.79 1020.83 1020.91 1020.95 1021.03 1021.07 1021.15 1021.19 1021.27 1021.35 1021.39 1021.47 1021.51 1021.51 1021.59 1021.63 1021.67 1021.79 1021.83 1021.87 1021.91 1021.99 1021.99 1022.07 1022.07 1022.11 1022.19 1022.27 1022.35 1022.47 1022.51 1022.59 1022.63 1022.67 1022.71 1022.75 1022.75 1022.75 1022.71 1022.71 1022.71 1022.71 1022.67
1020.23 1020.27 1020.35 1020.35 1020.35 1020.35 1020.39 1020.39 1020.39 1020.35 1020.35 1020.35 1020.43 1020.47 1020.51 1020.55 1020.55 1020.55 1020.59 1020.63 1020.63 1020.71 1020.75 1020.83 1020.83 1020.87 1020.91 1020.99 1021.07 1021.07 1021.15 1021.19 1021.27 1021.35 1021.43 1021.51 1021.59 1021.63 1021.71 1021.75 1021.79 1021.79 1021.87 1021.95 1022.03 1022.07 1022.07 1022.19 1022.19 1022.23 1022.31 1022.35 1022.47 1022.51 1022.63 1022.67 1022.67 1022.75 1022.79 1022.83 1022.87 1022.91 1022.91 1022.91 1022.91 1022.91 1022.91 1022.91 1022.87
1020.27 1020.31 1020.35 1020.35 1020.39 1020.43 1020.47 1020.47 1020.47 1020.47 1020.47 1020.51 1020.55 1020.63 1020.63 1020.67 1020.63 1020.63 1020.67 1020.71 1020.75 1020.79 1020.87 1020.91 1020.95 1021.03 1021.07 1021.11 1021.19 1021.19 1021.23 1021.31 1021.39 1021.51 1021.59 1021.63 1021.71 1021.75 1021.79 1021.83 1021.87 1021.91 1021.91 1022.03 1022.07 1022.15 1022.19 1022.23 1022.35 1022.43 1022.47 1022.55 1022.67 1022.79 1022.83 1022.87 1022.83 1022.87 1022.91 1022.95 1022.99 1023.03 1023.07 1023.07 1023.11 1023.15 1023.15 1023.11 1023.07
1020.35 1020.43 1020.43 1020.43 1020.47 1020.51 1020.55 1020.55 1020.51 1020.59 1020.63 1020.67 1020.71 1020.75 1020.79 1020.79 1020.79 1020.79 1020.79 1020.83 1020.87 1020.91 1020.95 1021.03 1021.07 1021.11 1021.19 1021.27 1021.31 1021.35 1021.39 1021.43 1021.51 1021.55 1021.63 1021.71 1021.71 1021.75 1021.79 1021.83 1021.83 1021.83 1021.83 1021.91 1021.99 1022.11 1022.23 1022.35 1022.47 1022.59 1022.63 1022.75 1022.83 1022.91 1022.99 1023.03 1022.99 1022.99 1023.03 1023.07 1023.11 1023.15 1023.19 1023.27 1023.27 1023.31 1023.35 1023.35 1023.35
1020.43 1020.47 1020.47 1020.47 1020.55 1020.59 1020.63 1020.63 1020.67 1020.71 1020.79 1020.79 1020.87 1020.91 1020.91 1020.91 1020.91 1020.91 1020.91 1020.95 1021.03 1021.07 1021.07 1021.11 1021.19 1021.23 1021.31 1021.35 1021.43 1021.47 1021.51 1021.51 1021.59 1021.63 1021.63 1021.71 1021.71 1021.75 1021.79 1021.79 1021.79 1021.83 1021.87 1021.91 1021.99 1022.11 1022.27 1022.43 1022.63 1022.75 1022.83 1022.91 1022.95 1022.99 1023.07 1023.11 1023.11 1023.11 1023.15 1023.19 1023.23 1023.35 1023.39 1023.47 1023.51 1023.51 1023.51 1023.51 1023.51
1020.47 1020.51 1020.55 1020.55 1020.59 1020.63 1020.71 1020.75 1020.79 1020.79 1020.87 1020.91 1020.95 1020.99 1020.99 1020.99 1020.99 1021.03 1021.07 1021.07 1021.15 1021.19 1021.19 1021.27 1021.35 1021.35 1021.39 1021.47 1021.51 1021.55 1021.63 1021.63 1021.67 1021.71 1021.71 1021.71 1021.79 1021.79 1021.87 1021.87 1021.87 1021.91 1021.95 1021.99 1022.07 1022.19 1022.35 1022.51 1022.71 1022.91 1022.99 1023.07 1023.07 1023.07 1023.11 1023.19 1023.23 1023.27 1023.35 1023.35 1023.43 1023.51 1023.63 1023.63 1023.71 1023.71 1023.71 1023.67 1023.63
1020.47 1020.55 1020.59 1020.63 1020.63 1020.71 1020.79 1020.83 1020.91 1020.91 1020.99 1021.03 1021.07 1021.11 1021.07 1021.07 1021.07 1021.11 1021.19 1021.19 1021.27 1021.31 1021.35 1021.43 1021.51 1021.51 1021.59 1021.63 1021.67 1021.71 1021.79 1021.79 1021.79 1021.83 1021.83 1021.83 1021.91 1021.91 1021.95 1021.95 1021.99 1022.03 1022.07 1022.11 1022.19 1022.35 1022.47 1022.63 1022.79 1022.91 1023.07 1023.15 1023.15 1023.19 1023.19 1023.27 1023.35 1023.47 1023.51 1023.59 1023.63 1023.75 1023.79 1023.83 1023.87 1023.87 1023.87 1023.87 1023.83
1020.55 1020.63 1020.63 1020.71 1020.79 1020.83 1020.87 1020.95 1020.99 1021.07 1021.07 1021.15 1021.15 1021.19 1021.19 1021.19 1021.23 1021.27 1021.31 1021.39 1021.47 1021.51 1021.55 1021.63 1021.63 1021.67 1021.75 1021.83 1021.87 1021.91 1021.95 1021.95 1021.95 1021.99 1022.03 1022.07 1022.07 1022.11 1022.11 1022.15 1022.15 1022.19 1022.19 1022.27 1022.35 1022.47 1022.63 1022.71 1022.79 1022.91 1023.07 1023.19 1023.23 1023.27 1023.35 1023.47 1023.55 1023.67 1023.79 1023.83 1023.91 1023.95 1024.03 1024.07 1024.07 1024.07 1024.07 1024.07 1024.03
1020.63 1020.67 1020.71 1020.79 1020.83 1020.91 1020.95 1021.07 1021.07 1021.15 1021.19 1021.23 1021.23 1021.27 1021.31 1021.35 1021.39 1021.47 1021.51 1021.59 1021.63 1021.71 1021.79 1021.79 1021.83 1021.91 1021.91 1021.99 1022.03 1022.07 1022.07 1022.11 1022.15 1022.19 1022.19 1022.19 1022.23 1022.27 1022.31 1022.35 1022.35 1022.35 1022.39 1022.47 1022.55 1022.63 1022.71 1022.79 1022.91 1022.99 1023.11 1023.23 1023.39 1023.51 1023.63 1023.79 1023.87 1023.95 1024.03 1024.07 1024.11 1024.15 1024.19 1024.19 1024.19 1024.19 1024.23 1024.19 1024.19
1020.67 1020.75 1020.79 1020.87 1020.91 1020.99 1021.07 1021.11 1021.15 1021.19 1021.27 1021.35 1021.35 1021.43 1021.51 1021.55 1021.63 1021.67 1021.75 1021.79 1021.87 1021.91 1021.91 1021.91 1021.95 1022.03 1022.11 1022.15 1022.19 1022.19 1022.19 1022.27 1022.35 1022.35 1022.39 1022.43 1022.47 1022.47 1022.51 1022.51 1022.51 1022.51 1022.55 1022.59 1022.67 1022.75 1022.83 1022.91 1023.03 1023.11 1023.23 1023.35 1023.59 1023.79 1023.91 1024.03 1024.11 1024.19 1024.31 1024.31 1024.27 1024.27 1024.27 1024.27 1024.31 1024.35 1024.35 1024.35 1024.35
1020.75 1020.79 1020.87 1020.95 1021.03 1021.07 1021.11 1021.19 1021.19 1021.27 1021.35 1021.43 1021.51 1021.63 1021.67 1021.75 1021.83 1021.91 1021.91 1021.95 1022.03 1022.07 1022.07 1022.11 1022.15 1022.19 1022.27 1022.31 1022.35 1022.39 1022.43 1022.47 1022.51 1022.55 1022.59 1022.63 1022.63 1022.67 1022.67 1022.71 1022.71 1022.71 1022.71 1022.71 1022.79 1022.91 1022.95 1023.07 1023.19 1023.31 1023.47 1023.59 1023.79 1024.07 1024.19 1024.23 1024.35 1024.39 1024.43 1024.47 1024.47 1024.47 1024.47 1024.47 1024.51 1024.55 1024.59 1024.59 1024.55
1020.79 1020.87 1020.91 1021.03 1021.07 1021.15 1021.19 1021.23 1021.35 1021.43 1021.51 1021.59 1021.67 1021.79 1021.87 1021.91 1022.03 1022.07 1022.11 1022.15 1022.19 1022.23 1022.27 1022.31 1022.35 1022.43 1022.47 1022.51 1022.55 1022.59 1022.63 1022.67 1022.67 1022.71 1022.75 1022.79 1022.79 1022.79 1022.79 1022.83 1022.83 1022.83 1022.79 1022.87 1022.95 1023.03 1023.15 1023.31 1023.39 1023.51 1023.67 1023.87 1024.07 1024.31 1024.43 1024.43 1024.47 1024.51 1024.59 1024.67 1024.71 1024.71 1024.75 1024.79 1024.79 1024.79 1024.83 1024.87 1024.79
1020.87 1020.95 1021.03 1021.07 1021.15 1021.19 1021.27 1021.35 1021.43 1021.51 1021.63 1021.71 1021.83 1021.91 1022.03 1022.07 1022.19 1022.23 1022.31 1022.35 1022.35 1022.43 1022.47 1022.51 1022.55 1022.63 1022.63 1022.71 1022.71 1022.79 1022.83 1022.87 1022.91 1022.91 1022.91 1022.91 1022.91 1022.95 1022.91 1022.91 1022.95 1022.95 1022.95 1023.07 1023.15 1023.23 1023.35 1023.51 1023.59 1023.75 1023.91 1024.07 1024.35 1024.47 1024.55 1024.59 1024.63 1024.71 1024.79 1024.87 1024.91 1024.95 1024.99 1024.99 1025.03 1025.03 1025.03 1024.99 1024.95
1020.91 1021.03 1021.11 1021.19 1021.27 1021.31 1021.35 1021.43 1021.51 1021.63 1021.75 1021.87 1021.95 1022.07 1022.19 1022.19 1022.31 1022.35 1022.43 1022.47 1022.55 1022.63 1022.67 1022.75 1022.79 1022.83 1022.91 1022.91 1022.91 1022.95 1022.99 1023.03 1023.07 1023.11 1023.11 1023.11 1023.11 1023.11 1023.11 1023.15 1023.15 1023.15 1023.19 1023.27 1023.35 1023.43 1023.51 1023.63 1023.79 1023.91 1024.11 1024.35 1024.55 1024.63 1024.67 1024.75 1024.83 1024.91 1024.99 1025.03 1025.07 1025.07 1025.11 1025.11 1025.11 1025.11 1025.11 1025.07 1025.07
1020.99 1021.07 1021.19 1021.27 1021.35 1021.39 1021.47 1021.51 1021.63 1021.71 1021.83 1021.99 1022.07 1022.19 1022.35 1022.35 1022.47 1022.51 1022.59 1022.63 1022.71 1022.79 1022.91 1022.95 1023.03 1023.07 1023.11 1023.15 1023.15 1023.19 1023.19 1023.23 1023.27 1023.35 1023.35 1023.35 1023.35 1023.35 1023.39 1023.43 1023.47 1023.35 1023.31 1023.39 1023.51 1023.63 1023.71 1023.83 1023.99 1024.15 1024.31 1024.51 1024.71 1024.79 1024.83 1024.91 1025.03 1025.11 1025.15 1025.19 1025.19 1025.23 1025.23 1025.23 1025.19 1025.19 1025.19 1025.15 1025.11
1021.07 1021.15 1021.19 1021.35 1021.43 1021.51 1021.55 1021.63 1021.71 1021.83 1021.99 1022.11 1022.23 1022.35 1022.47 1022.55 1022.63 1022.67 1022.75 1022.79 1022.91 1022.99 1023.07 1023.15 1023.19 1023.27 1023.35 1023.35 1023.43 1023.47 1023.51 1023.51 1023.55 1023.59 1023.63 1023.63 1023.63 1023.63 1023.63 1023.71 1023.71 1023.63 1023.51 1023.55 1023.63 1023.75 1023.87 1023.99 1024.11 1024.27 1024.47 1024.63 1024.79 1024.91 1024.99 1025.07 1025.19 1025.23 1025.31 1025.35 1025.39 1025.39 1025.35 1025.35 1025.31 1025.23 1025.19 1025.15 1025.03
1021.15 1021.19 1021.27 1021.39 1021.51 1021.59 1021.63 1021.75 1021.79 1021.95 1022.11 1022.27 1022.39 1022.47 1022.59 1022.67 1022.79 1022.83 1022.91 1022.99 1023.07 1023.15 1023.23 1023.31 1023.39 1023.47 1023.51 1023.55 1023.63 1023.71 1023.79 1023.79 1023.75 1023.75 1023.79 1023.83 1023.83 1023.79 1023.79 1023.83 1023.87 1023.83 1023.75 1023.67 1023.79 1023.87 1023.99 1024.11 1024.19 1024.35 1024.51 1024.71 1024.91 1025.03 1025.11 1025.19 1025.31 1025.39 1025.47 1025.51 1025.51 1025.51 1025.43 1025.39 1025.35 1025.35 1025.27 1025.11 1024.83
1021.19 1021.23 1021.35 1021.43 1021.55 1021.63 1021.75 1021.83 1021.91 1022.07 1022.23 1022.39 1022.51 1022.63 1022.71 1022.79 1022.91 1022.99 1023.07 1023.11 1023.19 1023.23 1023.35 1023.43 1023.51 1023.59 1023.63 1023.63 1023.79 1023.91 1023.95 1023.99 1023.91 1023.87 1023.91 1023.99 1023.95 1023.91 1023.91 1023.99 1024.07 1024.07 1024.03 1023.87 1023.87 1023.95 1024.07 1024.15 1024.27 1024.39 1024.59 1024.79 1024.95 1025.07 1025.19 1025.31 1025.43 1025.55 1025.63 1025.63 1025.63 1025.59 1025.51 1025.47 1025.43 1025.35 1025.27 1025.15 1024.79
1021.27 1021.35 1021.43 1021.51 1021.63 1021.75 1021.87 1021.95 1022.11 1022.23 1022.35 1022.51 1022.63 1022.75 1022.83 1022.91 1023.03 1023.11 1023.19 1023.27 1023.35 1023.35 1023.43 1023.51 1023.63 1023.67 1023.75 1023.75 1023.83 1023.91 1023.99 1024.07 1024.07 1024.07 1024.03 1024.03 1023.99 1023.95 1023.99 1024.15 1024.23 1024.31 1024.23 1023.99 1023.91 1023.99 1024.07 1024.19 1024.31 1024.43 1024.67 1024.91 1025.07 1025.11 1025.23 1025.35 1025.51 1025.63 1025.75 1025.75 1025.79 1025.71 1025.63 1025.55 1025.51 1025.47 1025.35 1025.23 1025.07
1021.39 1021.47 1021.51 1021.63 1021.75 1021.87 1021.95 1022.07 1022.23 1022.35 1022.47 1022.63 1022.71 1022.79 1022.91 1023.03 1023.11 1023.23 1023.35 1023.43 1023.47 1023.47 1023.51 1023.63 1023.75 1023.83 1023.83 1023.79 1023.87 1023.91 1024.03 1024.07 1024.15 1024.19 1024.19 1024.11 1024.11 1024.15 1024.19 1024.31 1024.35 1024.35 1024.27 1024.03 1023.91 1023.95 1024.07 1024.19 1024.31 1024.47 1024.71 1025.03 1025.11 1025.19 1025.23 1025.39 1025.55 1025.75 1025.83 1025.87 1025.91 1025.87 1025.79 1025.71 1025.63 1025.51 1025.47 1025.35 1025.27
Wind_Speed
4 4 3 3 3 3 3 3 3 2 2 2 3 2 2 3 3 3 3 3 3 3 3 3 3 3 3 4 5 5 6 6 7 8 8 7 7 7 7 7 6 4 3 3 3 3 3 4 4 3 3 2 3 3 2 2 3 4 4 4 3 3 3 4 4 4 4 3 2
6 6 5 5 4 3 3 3 3 3 3 3 3 3 3 3 4 3 4 4 3 3 3 3 4 5 5 6 6 6 7 7 8 9 9 9 8 8 8 7 6 5 4 4 4 4 4 5 5 4 3 3 3 3 3 3 4 5 6 6 4 3 4 4 4 4 4 3 3
6 6 5 5 5 4 4 4 4 4 4 4 3 3 4 4 4 4 4 4 4 4 4 4 4 5 6 7 7 7 7 8 9 9 9 8 9 8 8 7 6 6 5 4 5 5 5 5 5 4 4 3 4 4 4 4 4 5 6 6 4 3 3 3 3 3 3 3 3
6 6 6 6 6 6 5 4 4 4 4 4 4 4 4 4 4 4 4 4 4 5 4 4 4 5 6 7 8 8 8 9 9 9 9 8 9 9 8 7 7 7 6 6 6 6 7 6 5 5 4 5 5 5 4 4 5 5 4 4 3 3 3 3 3 3 3 3 3
6 6 6 6 6 6 5 4 5 5 4 4 4 4 4 4 4 4 4 4 5 5 5 5 5 5 6 7 8 9 9 9 9 8 8 9 9 9 8 8 8 7 7 7 7 7 7 7 5 5 5 5 4 4 4 4 5 5 4 3 3 3 3 3 3 3 3 3 3
6 6 6 6 6 5 5 5 5 5 4 5 6 6 5 4 4 5 5 6 6 6 6 6 6 6 7 7 8 8 8 8 8 8 9 9 9 8 8 8 8 8 7 7 7 7 7 7 5 5 5 5 4 4 4 4 5 5 4 4 3 3 3 3 3 3 3 4 4
6 6 7 6 6 6 6 5 5 5 5 6 8 8 7 6 6 6 6 6 5 6 6 6 6 6 7 7 8 8 8 8 9 10 10 10 8 8 8 8 9 9 8 8 8 7 7 6 5 4 4 4 4 4 5 5 5 5 5 4 3 3 3 3 2 3 4 5 5
6 7 7 7 7 7 7 6 6 6 6 7 8 8 8 7 7 7 7 6 6 6 6 6 7 7 7 8 8 8 8 9 9 9 9 8 8 7 8 9 9 10 9 9 8 8 7 5 5 4 4 4 4 4 5 6 6 6 6 5 4 3 3 3 3 3 4 6 6
6 6 6 6 7 7 7 7 7 8 8 8 8 8 8 8 8 7 7 7 6 6 6 6 6 7 8 8 8 8 8 8 9 9 8 7 8 8 8 8 9 9 9 8 8 7 7 5 5 5 4 4 4 4 5 6 7 7 6 5 4 4 4 4 4 5 5 6 6
6 5 6 6 6 6 7 7 8 9 9 9 9 9 8 9 8 7 7 6 6 6 7 6 6 7 8 9 8 8 8 8 8 8 8 8 8 8 8 8 9 8 8 7 7 6 6 5 5 5 5 5 5 5 5 6 7 6 6 4 5 5 6 5 6 6 5 5 6
6 6 6 6 6 6 7 8 8 8 8 8 8 8 8 8 7 6 5 5 6 7 7 6 7 7 8 8 8 8 7 7 7 7 8 8 8 8 8 8 8 8 7 6 6 5 5 5 5 6 6 5 5 5 6 6 7 7 6 5 5 6 6 6 5 4 4 5 5
6 6 5 5 5 6 7 7 7 7 7 8 7 7 7 7 6 5 5 6 7 7 6 6 7 7 7 7 7 7 7 7 7 7 8 8 8 8 8 8 8 8 7 6 6 5 5 5 6 6 6 6 5 5 5 6 7 7 6 6 6 6 6 5 4 3 3 4 5
6 6 5 5 6 6 7 7 7 7 7 7 7 6 6 6 6 6 6 7 7 7 6 6 7 7 7 7 6 6 6 7 7 7 7 7 7 7 7 7 7 7 7 6 5 5 5 5 6 6 6 6 5 5 6 6 6 6 6 6 5 5 5 5 4 4 4 4 5
6 6 5 5 6 6 7 7 6 6 6 7 6 6 5 5 5 6 6 6 6 6 5 6 6 7 7 7 7 7 7 6 7 7 7 7 7 7 7 7 7 7 6 6 6 6 6 6 6 6 7 7 7 6 6 6 6 6 6 5 5 5 5 5 5 5 5 6 5
6 6 6 6 6 6 6 7 6 5 6 6 6 5 5 4 5 6 6 6 5 5 5 6 6 7 7 8 8 7 7 7 7 7 8 8 8 8 7 7 7 7 6 6 6 6 6 7 7 7 7 7 7 7 6 6 6 6 5 5 5 5 5 5 5 5 5 5 5
6 6 6 6 6 6 6 6 5 5 5 5 5 5 4 4 5 6 6 6 5 6 6 7 6 6 7 7 8 8 7 7 7 8 8 8 8 8 8 7 7 7 7 7 7 7 6 6 6 7 7 7 7 7 7 7 7 7 6 6 6 6 6 6 5 5 4 5 5
6 6 5 6 6 6 6 5 5 5 5 5 5 5 4 4 5 6 6 6 6 6 6 6 6 6 6 7 7 8 8 8 8 8 8 8 8 8 8 7 7 7 7 7 7 7 7 6 6 7 7 7 7 7 7 7 7 7 7 6 7 7 7 6 5 4 4 4 4
5 5 5 6 6 6 6 5 5 5 5 5 5 5 5 5 5 6 7 7 6 7 7 7 7 7 7 8 7 7 7 7 7 8 8 8 8 8 7 7 7 7 7 7 7 7 7 7 7 7 7 7 7 7 7 8 7 7 7 7 7 7 7 6 5 5 4 5 4
5 5 5 6 6 6 5 5 5 5 5 5 5 6 6 6 6 6 7 7 7 7 7 7 8 8 8 8 8 7 7 7 8 8 8 8 7 7 7 7 7 7 7 7 7 7 7 7 7 7 7 8 8 8 8 8 7 7 7 7 7 7 7 6 6 5 5 5 5
4 4 4 5 5 5 5 5 5 5 5 5 6 7 7 7 7 7 7 7 7 7 8 8 8 8 8 8 8 8 7 6 7 8 8 8 7 7 7 7 7 7 6 7 7 7 8 8 8 8 8 8 8 8 8 8 8 7 7 7 7 7 7 7 6 6 6 6 5
4 4 4 4 4 4 4 4 4 4 5 6 7 7 7 7 7 7 7 7 7 8 8 8 8 8 8 8 8 8 7 6 7 7 7 7 7 7 7 7 7 7 7 7 7 8 8 8 8 8 8 8 8 8 8 8 7 7 7 7 7 7 7 7 7 7 7 7 6
4 4 4 3 4 4 4 4 4 4 5 6 7 7 7 7 7 7 7 7 8 8 8 8 8 8 8 8 8 7 7 6 7 7 7 7 7 7 6 6 7 7 7 7 7 8 8 8 8 8 7 8 8 8 7 7 7 7 7 8 7 7 7 7 7 7 7 7 6
4 4 4 3 4 4 4 4 4 4 5 6 7 7 6 6 7 7 7 7 8 8 8 7 7 7 8 8 7 7 7 7 7 7 7 6 6 6 6 5 6 7 7 7 6 7 7 8 8 8 7 7 8 7 7 7 7 7 7 8 8 7 7 7 7 7 7 7 6
4 4 4 3 4 4 3 3 4 5 6 6 6 6 6 6 6 7 7 7 8 8 7 7 7 7 8 8 8 8 8 8 8 7 6 6 5 5 5 5 5 6 6 6 6 7 7 6 6 7 7 7 7 7 6 6 6 6 7 7 7 7 7 7 7 6 6 6 6
4 4 4 4 4 4 3 4 5 6 6 6 6 5 6 6 6 7 7 8 8 8 8 8 8 7 7 7 7 7 7 7 7 6 6 5 5 4 4 4 4 4 5 7 10 11 10 8 6 6 6 6 6 6 6 6 6 6 6 6 6 6 6 6 6 6 6 6 5
4 4 5 5 4 4 4 5 6 6 6 5 5 5 5 6 6 7 7 8 7 7 7 7 7 7 7 6 6 5 5 5 5 5 4 4 4 4 4 3 3 4 5 9 12 13 13 12 10 8 6 4 5 5 6 6 6 6 6 6 6 6 6 6 6 5 5 5 5
5 5 5 5 5 5 5 5 5 5 5 5 5 5 5 5 6 6 7 7 7 7 6 6 7 7 7 6 6 6 6 5 5 5 5 5 6 6 5 5 4 5 7 11 13 14 13 13 13 11 8 5 5 5 5 6 6 6 6 6 5 5 5 5 5 5 5 5 5
4 5 5 5 6 6 5 5 5 5 5 5 5 5 5 5 6 6 6 7 7 6 6 6 6 6 5 6 7 7 7 6 6 6 7 7 7 7 6 5 5 6 9 13 14 13 13 13 13 12 10 7 5 5 6 6 6 5 5 5 5 5 5 5 4 4 4 5 5
4 5 5 5 6 6 5 5 5 5 5 5 5 5 5 6 6 7 7 7 7 6 6 5 5 5 5 6 6 6 6 6 6 6 7 8 8 7 7 6 6 8 11 14 14 13 13 13 13 13 12 9 6 4 4 5 5 5 4 4 4 4 4 4 4 4 4 4 4
4 5 5 6 6 5 5 5 5 5 5 5 5 6 6 7 7 7 8 8 7 7 5 5 5 5 6 6 6 6 6 6 6 7 7 8 8 8 7 7 7 8 11 14 13 13 13 13 13 13 13 12 8 6 5 5 4 4 4 4 4 4 4 4 4 4 4 4 4
4 5 5 6 6 5 5 5 5 5 5 5 6 6 7 7 7 7 7 7 7 7 6 6 7 7 7 6 6 6 6 7 7 7 7 8 8 8 7 7 7 8 11 14 14 14 14 14 14 15 14 13 9 6 5 5 5 4 4 4 4 4 4 4 4 5 5 4 4
5 5 5 5 5 5 5 5 5 5 6 7 7 7 7 7 7 7 7 6 6 7 7 7 8 8 7 7 7 7 7 7 7 7 7 7 7 7 7 6 7 9 11 14 14 14 14 15 15 15 14 13 9 6 5 5 4 4 4 4 5 5 5 4 4 4 4 4 3
5 5 5 5 5 5 5 5 6 6 7 7 7 7 7 7 7 6 6 6 6 6 7 7 7 7 7 7 7 7 7 7 7 7 7 7 7 7 6 6 6 9 12 14 14 14 15 15 15 15 14 12 8 6 4 4 4 4 4 5 5 5 4 4 3 3 3 3 2
5 5 5 5 5 5 5 6 6 7 7 8 7 7 7 7 7 7 6 6 5 5 6 6 6 5 5 5 6 6 7 6 6 6 7 7 7 7 6 5 5 8 12 14 14 14 15 15 14 14 13 10 7 5 4 4 4 4 4 4 4 4 4 3 3 2 2 2 2
6 6 6 5 5 5 6 6 7 7 8 8 7 7 7 7 7 6 6 6 6 5 5 5 5 5 5 5 5 6 6 7 6 6 6 6 6 7 7 6 6 9 13 14 14 14 14 14 13 12 11 8 5 5 5 5 5 5 5 5 4 4 4 4 3 2 2 2 1
6 6 6 6 6 6 6 7 7 8 8 8 7 7 7 6 6 6 6 7 6 6 5 4 4 4 4 5 5 5 6 6 6 6 6 6 5 5 5 5 5 8 12 13 13 13 13 13 12 11 9 6 5 4 5 5 4 4 4 4 4 4 4 4 4 3 3 2 1
6 6 6 6 6 6 6 7 8 8 8 7 7 7 6 6 5 5 5 5 5 5 5 4 4 4 4 4 4 4 4 4 5 5 5 5 5 4 4 4 4 6 10 13 12 12 12 12 11 9 7 5 4 4 4 4 4 4 4 4 3 3 3 3 4 4 3 3 2
5 6 6 6 6 6 6 7 8 8 8 7 6 6 5 5 4 4 5 5 5 5 5 4 4 4 4 4 4 4 3 3 4 4 4 4 4 4 4 3 3 4 6 10 11 11 11 10 10 8 6 4 3 3 3 3 3 3 3 3 3 3 3 3 3 3 4 4 4
5 6 6 7 7 7 7 7 8 8 8 7 6 6 5 4 4 4 4 4 4 5 5 5 4 4 3 4 4 3 3 3 4 4 4 3 3 3 4 3 2 3 2 5 9 10 9 9 9 8 7 5 4 3 3 3 3 3 3 3 3 3 3 3 3 3 4 5 7
5 5 6 6 6 7 7 7 7 7 7 6 6 6 5 4 4 4 4 4 4 4 5 5 4 3 3 3 4 4 3 3 4 4 4 3 3 4 4 3 2 2 2 1 7 8 8 8 8 8 7 5 4 3 3 3 3 3 3 3 3 3 3 4 3 4 4 4 6
4 5 6 6 6 7 7 7 7 6 6 6 6 6 5 5 4 4 4 3 4 4 4 4 4 3 3 3 4 4 4 4 3 4 4 4 4 4 4 2 1 2 3 1 5 7 7 8 8 8 7 5 4 3 3 3 3 2 2 2 2 2 2 3 3 4 4 4 5
Wind_Direction
42 44 49 57 63 67 69 63 57 53 52 50 43 36 34 47 48 40 32 29 31 29 26 28 30 31 34 38 52 64 71 72 71 67 62 55 51 50 54 64 73 86 105 120 126 127 125 121 119 114 105 97 92 82 70 59 73 78 77 71 68 69 73 79 73 67 65 66 66
41 41 43 48 50 54 58 54 48 45 43 44 45 43 42 46 48 44 38 33 30 30 32 40 41 45 50 54 58 64 69 72 72 70 66 61 56 53 53 59 66 76 89 101 105 105 103 101 102 102 100 96 91 83 72 58 70 74 73 66 63 62 66 70 70 69 69 67 63
42 42 42 42 42 45 48 48 42 40 39 41 44 47 50 50 49 47 42 36 30 31 36 42 42 47 53 60 63 65 67 69 70 70 68 64 60 58 57 58 60 62 66 75 80 84 85 86 88 89 88 86 85 81 75 62 70 75 77 72 71 72 75 80 81 79 76 70 65
44 44 44 44 44 45 47 48 43 40 38 40 44 50 52 52 50 48 44 40 38 37 36 38 42 46 51 59 63 65 66 67 70 70 70 66 64 62 61 60 58 56 55 58 66 72 75 77 79 80 79 79 80 80 78 75 76 79 81 79 78 80 83 87 84 81 77 72 66
45 45 44 45 44 46 47 47 46 44 42 42 47 49 49 49 49 48 48 49 45 40 35 35 45 50 53 57 61 63 64 64 68 69 68 64 62 62 62 62 61 59 55 53 59 66 71 75 78 78 76 74 73 75 80 86 85 84 82 76 71 72 77 79 76 77 80 80 70
48 46 44 43 43 44 46 45 47 49 50 51 51 51 48 47 49 52 55 57 52 44 40 42 48 52 54 54 58 60 60 60 63 64 63 59 54 53 55 59 61 61 58 53 55 60 66 72 76 77 76 76 75 73 73 81 85 84 80 72 63 62 65 68 70 76 81 84 79
52 49 46 43 43 44 45 43 48 51 54 56 54 52 50 49 52 55 58 60 55 50 48 48 49 52 55 56 58 58 59 58 58 59 60 59 53 49 48 50 51 51 50 47 48 50 54 60 70 74 74 74 71 62 59 67 76 79 78 73 63 58 58 58 57 67 76 81 81
52 50 48 47 47 48 48 46 50 54 55 56 54 51 50 50 51 54 56 57 54 53 53 53 54 57 61 64 63 62 60 59 58 58 60 63 60 55 51 49 49 47 45 43 44 46 48 53 60 63 63 63 62 58 58 66 75 78 79 76 69 62 57 56 56 63 72 77 77
48 46 45 47 48 50 52 53 55 57 59 58 54 52 50 50 50 51 54 55 53 52 52 54 55 59 63 65 65 64 62 62 62 61 61 62 61 58 55 53 51 49 47 44 45 47 50 55 58 59 60 63 65 65 68 73 78 79 79 77 72 65 60 59 61 66 72 77 78
46 43 43 46 45 49 54 57 56 58 60 58 54 52 52 52 51 51 54 57 54 51 48 48 51 55 59 61 62 62 64 66 66 65 63 60 60 59 58 57 56 55 52 48 48 50 53 61 65 66 67 70 74 74 74 75 78 77 76 73 71 68 64 61 64 69 75 81 82
46 43 43 45 43 49 55 58 56 56 56 56 52 51 51 51 51 52 56 59 58 54 48 44 49 54 57 59 59 61 63 67 70 70 68 65 63 62 62 62 61 61 59 55 53 55 59 66 72 75 76 77 78 77 76 74 76 76 75 74 74 72 70 66 66 72 80 89 91
47 45 44 45 45 52 57 59 57 55 54 53 52 50 50 50 50 52 57 60 61 57 51 46 52 57 60 62 61 61 63 67 71 73 73 71 70 70 70 69 67 65 63 58 57 60 65 70 75 77 78 77 77 76 77 77 79 79 79 77 77 78 79 77 76 77 84 90 91
49 47 46 44 49 55 60 61 58 56 53 52 50 49 49 48 49 53 57 60 62 60 56 51 54 58 63 65 66 66 67 70 71 73 74 74 73 73 73 72 70 68 66 61 60 64 70 74 77 78 79 78 77 77 79 81 83 85 85 84 83 84 86 86 82 78 77 77 80
51 49 48 47 52 58 61 62 60 56 52 51 49 48 48 48 51 55 59 59 61 61 60 56 56 58 60 63 65 66 67 70 71 73 73 72 71 70 69 69 68 69 68 66 64 68 73 78 80 82 83 82 81 80 81 83 86 89 90 89 88 86 84 80 75 74 75 77 76
52 50 49 51 55 60 64 64 63 58 54 52 49 48 48 48 53 57 59 57 60 61 61 60 59 59 59 61 62 62 63 64 67 70 71 71 69 67 67 66 66 67 69 70 69 69 73 78 81 84 85 85 84 82 81 80 82 82 83 83 82 81 77 72 69 71 76 82 83
54 52 51 55 58 62 65 66 66 62 58 56 52 50 48 49 55 58 58 57 59 61 63 62 62 61 60 60 61 61 62 62 64 66 69 69 68 67 67 67 67 68 70 73 73 73 73 75 79 82 83 84 84 82 80 78 78 77 76 75 74 74 73 71 69 71 77 86 89
54 53 54 59 62 64 66 67 67 65 62 60 57 55 54 53 58 61 61 60 63 65 65 64 66 66 65 63 62 62 63 63 64 66 68 69 69 69 69 70 70 71 73 76 77 77 77 76 77 79 80 81 81 80 79 79 79 78 77 75 73 73 72 72 71 71 75 81 80
56 55 56 61 64 66 68 68 68 66 65 63 61 60 60 61 65 67 66 65 68 71 71 69 70 70 70 69 67 66 66 67 68 69 71 72 73 74 75 75 76 76 77 78 79 80 80 79 78 78 79 79 80 79 79 79 78 77 76 75 74 74 74 73 71 69 68 67 61
61 58 59 63 66 68 69 70 70 69 68 67 68 67 66 66 70 73 74 72 73 75 76 75 73 72 73 74 73 73 72 72 74 75 75 75 76 77 78 79 79 79 79 79 79 80 79 78 78 78 79 80 80 80 80 79 78 77 75 74 74 74 73 72 69 67 64 61 58
69 66 65 68 70 71 71 71 71 71 72 74 73 72 70 69 73 76 78 78 77 77 77 78 77 76 76 77 78 77 77 77 77 77 77 77 76 77 78 79 78 77 77 78 78 79 79 79 79 80 81 83 83 82 81 80 79 78 76 74 72 71 70 69 67 65 63 60 60
80 78 77 76 77 77 76 75 75 75 76 78 76 75 74 74 75 77 79 80 78 77 78 78 80 81 81 81 81 80 80 79 79 78 78 77 76 76 76 77 76 75 74 73 74 75 77 78 79 81 82 83 83 83 83 83 81 78 76 73 70 67 64 62 61 59 58 56 56
93 91 89 85 84 84 82 80 78 78 79 81 80 79 79 79 80 81 81 82 81 80 79 80 81 82 83 83 84 84 84 82 81 80 79 79 79 78 78 79 79 79 77 75 74 75 76 77 76 77 78 80 81 81 83 84 83 81 77 74 70 65 61 57 55 53 50 48 48
100 99 96 91 90 87 85 82 80 79 79 82 83 83 83 84 85 86 86 85 85 84 84 83 83 83 84 85 86 87 88 87 85 85 85 85 85 84 83 83 86 86 86 84 82 81 81 81 79 77 77 78 79 80 81 83 85 84 80 77 72 67 62 57 53 49 45 41 39
98 100 100 95 91 86 83 83 82 82 81 82 85 87 88 89 90 89 88 87 87 87 87 87 86 85 85 86 86 88 89 91 92 93 95 95 94 93 92 92 95 98 99 97 93 91 89 87 84 84 84 85 84 83 81 80 82 83 83 80 77 72 66 59 54 48 44 38 34
96 98 98 96 89 84 80 84 86 86 84 84 86 88 90 91 92 91 90 89 88 89 90 91 90 89 89 88 88 89 91 94 97 101 103 104 104 103 103 104 106 106 103 100 97 96 96 95 94 92 92 93 93 90 85 79 78 79 80 79 78 74 69 61 54 48 43 38 31
105 104 103 100 95 89 86 88 90 90 88 88 88 89 91 93 93 93 92 91 91 91 92 92 92 91 89 87 85 84 84 87 88 91 94 98 98 96 94 92 90 90 92 94 96 97 99 101 101 99 96 95 97 95 90 83 78 76 75 74 74 72 69 63 53 45 39 33 28
113 112 110 107 102 97 94 93 93 93 92 91 91 92 93 94 94 93 92 92 90 88 86 85 85 84 82 78 74 72 71 70 69 70 73 76 78 77 77 77 79 84 89 92 94 96 99 102 103 101 98 92 92 92 91 87 80 76 72 70 68 67 66 64 54 44 34 25 21
116 114 112 108 105 102 99 98 96 95 94 93 94 95 94 92 91 90 89 88 86 83 80 79 79 79 77 73 70 68 66 66 67 68 70 71 72 73 74 75 78 84 88 90 92 94 97 100 102 102 100 95 91 90 91 89 83 77 71 68 65 63 62 60 52 43 33 23 17
114 113 111 108 107 106 104 103 101 100 98 97 96 93 91 87 85 84 84 83 81 79 79 80 81 81 79 77 73 70 67 67 69 71 72 73 72 71 71 73 77 83 86 88 89 91 93 96 98 99 98 95 89 82 79 80 78 76 73 68 64 62 61 57 51 43 34 25 20
113 112 111 111 111 110 110 109 107 105 102 99 95 90 86 83 81 81 81 81 80 81 82 84 84 81 79 78 75 73 71 70 71 72 73 74 72 70 69 69 74 80 85 86 87 88 89 91 92 94 93 90 83 75 70 70 72 74 73 70 65 62 60 57 53 47 39 31 28
115 114 113 114 114 115 115 114 110 106 102 98 93 88 85 83 82 82 82 83 84 85 85 84 82 79 76 73 73 73 74 74 73 73 74 74 74 72 70 69 73 80 84 85 86 87 87 88 90 91 90 87 81 75 71 73 74 72 69 64 58 55 53 54 52 48 43 38 37
118 116 116 116 118 119 119 115 111 106 102 98 94 90 88 86 85 85 85 86 87 86 85 82 80 77 74 72 73 74 76 76 76 76 76 76 76 75 73 71 75 81 84 85 86 87 88 90 91 91 89 86 80 74 71 74 72 68 61 54 48 44 42 42 42 40 37 35 38
119 117 117 117 119 118 116 113 110 107 104 100 97 95 93 91 89 86 85 84 84 84 82 81 79 78 77 77 78 78 78 78 77 77 77 77 77 77 75 73 77 82 85 86 87 89 91 93 93 92 89 85 79 71 67 70 67 62 56 49 42 37 34 32 29 23 17 12 17
122 119 118 117 117 115 113 112 111 109 106 102 100 98 97 95 91 88 86 84 83 80 79 77 77 76 76 77 81 82 82 80 76 75 74 75 76 76 75 72 76 83 86 89 91 93 95 96 95 92 88 81 74 67 64 65 60 55 51 45 38 32 26 23 16 6 352 342 344
125 122 120 118 117 116 115 115 114 111 108 104 102 100 98 96 95 94 93 91 88 83 79 76 74 74 73 73 77 80 82 81 76 73 72 73 75 76 75 72 77 86 90 93 95 96 97 97 95 91 86 77 69 64 63 64 59 52 46 40 31 21 13 7 358 347 333 319 318
128 125 123 121 120 119 119 119 116 112 108 105 103 101 98 96 95 96 97 96 93 89 86 82 79 78 76 74 73 74 77 79 78 74 70 69 72 73 71 64 70 87 95 97 98 99 99 99 98 93 87 77 67 61 61 62 57 49 41 35 23 10 0 353 345 336 325 313 297
130 128 126 124 123 122 121 119 115 111 108 105 104 102 100 97 96 97 99 101 99 98 97 94 91 88 85 82 76 69 65 70 79 77 71 65 69 72 68 52 48 79 94 99 101 102 103 104 103 99 92 79 70 65 62 60 53 44 36 29 12 356 346 342 336 332 326 318 298
132 130 128 126 124 123 121 118 114 111 109 108 107 105 102 100 99 100 103 107 109 111 111 107 103 100 98 95 87 71 56 51 72 79 76 65 67 73 73 60 37 50 80 102 106 108 109 110 109 107 102 92 85 79 72 64 53 41 31 18 359 344 335 333 333 331 329 326 329
132 130 128 126 124 123 120 117 115 114 113 113 110 107 104 102 103 104 107 112 116 119 121 119 114 110 107 105 99 85 65 51 58 69 74 66 61 69 75 71 34 8 31 107 113 114 115 114 115 113 110 103 100 95 87 78 61 45 27 11 356 343 335 333 335 335 334 332 345
125 124 123 123 123 122 120 117 116 117 118 118 116 112 110 109 109 109 110 113 119 124 125 121 113 108 105 107 102 94 81 62 55 57 60 57 52 57 64 71 31 333 319 151 124 121 121 119 121 119 115 105 103 99 93 86 70 49 28 8 358 348 339 333 335 337 337 335 344
119 119 119 120 120 121 120 119 119 120 121 121 120 119 117 116 112 111 112 116 121 124 121 113 100 91 88 95 95 91 84 68 53 46 45 45 44 49 54 61 9 317 304 256 127 125 125 124 127 126 123 113 105 98 93 87 78 60 33 1 352 349 342 336 337 339 339 337 337